Regional Weather Roundup
Issued by NWS

Home | Current Version | Previous Version | Graphics & Text | Print | Product List | Glossary On
Versions: 1 2 3 4 5 6 7 8 9 10 11 12 13 14 15 16 17 18 19 20 21 22 23 24 25 26 27 28 29 30 31 32 33 34 35 36 37 38 39 40 41 42 43 44 45 46 47 48 49 50
000
ASUS43 KFSD 242302
RWRSD

WEATHER ROUNDUP FOR SOUTH DAKOTA
NATIONAL WEATHER SERVICE SIOUX FALLS SD
500 PM CST TUE JAN 24 2017

NOTE: "FAIR" INDICATES FEW OR NO CLOUDS BELOW 12,000 FEET WITH NO
SIGNIFICANT WEATHER AND/OR OBSTRUCTIONS TO VISIBILITY.


SDZ001>005-009-010-012>017-250000-
NORTHWEST AND NORTH CENTRAL SOUTH DAKOTA

CITY           SKY/WX    TMP DP  RH WIND       PRES   REMARKS
BUFFALO          N/A     20  14  77 NW21      29.79R WCI   4
FAITH            N/A     21  19  92 N21       29.83R WCI   5
MOBRIDGE       LGT SNOW  24  18  77 N12       29.83R WCI  13
$$

SDZ012>016-024>037-041>051-057-063-072>074-250000-
SOUTHWEST AND SOUTH CENTRAL SOUTH DAKOTA

CITY           SKY/WX    TMP DP  RH WIND       PRES   REMARKS
RAPID CTY ARPT LGT SNOW  21  18  88 N15       29.81R VSB 3/4 WCI   8
PIERRE         FOG       22  19  89 N24G33    29.79R VSB 1/2 WCI   5
CUSTER         LGT SNOW  15  10  80 N3        29.67R VSB 3/4
PINE RIDGE     SNOW      21  17  84 N18G24    29.77R VSB 1/2 WCI   6
SPEARFISH      LGT SNOW  18  16  93 N13G20    29.82R WCI   4
WINNER         HVY SNOW  30  28  92 N18       29.69R VSB 1/4 WCI  18
$$

SDZ004>011-016>023-039-040-250000-
NORTHEAST SOUTH DAKOTA

CITY           SKY/WX    TMP DP  RH WIND       PRES   REMARKS
ABERDEEN       LGT SNOW  25  20  81 N16       29.83R WCI  12
WATERTOWN      CLOUDY    29  26  89 NE13      29.74S WCI  19
BROOKINGS      CLOUDY    28  26  92 E9G17     29.72S FOG     WCI  19
SISSETON         N/A     29  28  96 N13       29.81S WCI  19
$$

SDZ017-020-022-023-036>040-048>070-250000-
SOUTHEAST SOUTH DAKOTA

CITY           SKY/WX    TMP DP  RH WIND       PRES   REMARKS
SIOUX FALLS    SNOW      30  29  96 NE17      29.69R VSB 1/2 WCI  18
HURON          LGT SNOW  30  29  96 NE13      29.77R FOG     WCI  20
CHAMBERLAIN    LGT SNOW  31  30  98 N13G20    29.73R VSB 3/4 WCI  21
MITCHELL       LGT SNOW  31  30  96 NE16      29.73R VSB 3/4 WCI  20
YANKTON          N/A     30  28  93 NE17      29.64R VSB 1/4 WCI  18
$$

ABBREVIATIONS USED IN REMARKS
   TC - TEMPERATURE IN CELSIUS
  WCI - WIND CHILL INDEX
   HX - HEAT INDEX
  VSB - VISIBILITY




USA.gov is the U.S. government's official web portal to all federal, state and local government web resources and services.